sat.trackr.live / text

‹ back to catalog

STARLINK-11250 [DTC]

NORAD 60910 · 2024-154H

PAYLOAD ACTIVE UNKNOWN

§ Identity

Operator
Country
US
Launch date
2024-08-31
Launch site
AFETR
Launch vehicle
Mass (kg)
RCS (m²)

Purposes: comms

External: N2YO · Heavens-Above · Gunter

§ Orbital elements

Epoch: 2026-09-21T15:59:28.353696Z

Period
91.74 min
Inclination
53.1600°
Eccentricity
0.0001136
Mean motion
15.69707213 rev/d
Perigee alt
359.0 km
Apogee alt
360.5 km
Semi-major
6,737.9 km
B*
-3.1870e-6
RAAN
245.2479°
Arg perigee
122.0321°
Mean anomaly
238.0808°
Rev number
11,929

§ Raw data

STARLINK-11250 [DTC]1 60910U 24154H   26264.66630039 -.00000975  00000+0 -31870-5 0  99912 60910  53.1600 245.2479 0001136 122.0321 238.0808 15.69707213119290

JSON: /api/v1/satellites/60910 · /tle

For live sub-satellite position, see the globe view (requires WebGL).

§ Visibility from observer

Set your observer location to see the next 7 days of passes ≥ 10°. The values pass through the URL so the page stays shareable.

No JS? Fill the form by hand. The geolocation button needs JavaScript.